Tracking 29892 objects as of 21-Nov-2024
HD Live streaming from Space Station
objects crossing your sky now

OBJECT AS

Track OBJECT AS now!
10-day predictions


NORAD ID: 57206
Int'l Code: 2023-091AS
Perigee: 507.6 km
Apogee: 519.8 km
Inclination: 97.6 °
Period: 94.8 minutes
Semi major axis: 6884 km
RCS: Unknown
Launch date: June 27, 2023
Source: (TBD)
Launch site: VOSTOCHNY COSMODROME (VOSTO)
Your satellite tracking list
Your tracking list is empty




NASA's NSSDC Master Catalog

Two Line Element Set (TLE):
1 57206U 23091AS  24326.16376911  .00022403  00000-0  10472-2 0  9993
2 57206  97.5888  19.7437 0008812 293.1483  66.8823 15.19762754 77360
Source of the keplerian elements: AFSPC